Weather History for Frankfurt / M-Flughafen, Germany

Change the Weather History Date:

Sunday, December 15, 2013

  Actual Average Record
Temperature  
Mean Temperature 37 °F -  
Max Temperature 44 °F 38 °F - ()
Min Temperature 30 °F 30 °F - ()
Degree Days  
Heating Degree Days 28    
Moisture  
Dew Point 35 °F    
Average Humidity 88    
Maximum Humidity 100    
Minimum Humidity 65    
Precipitation  
Precipitation 0.00 in - - ()
Sea Level Pressure  
Sea Level Pressure 30.46 in    
Wind  
Wind Speed 6 mph ()    
Max Wind Speed 11 mph    
Max Gust Speed -    
Visibility 6.5 miles    
Events Fog    
T = Trace of Precipitation, MM = Missing Value Source: Averaged Metar Reports

Daily Weather History Graph

Daily Weather History Graph

Search for Another Location

Airport:

Trip Planner

Search our weather history database for the weather conditions in past years. The results will help you decide how hot, cold, wet, or windy it might be!

Date:

Astronomy

Dec. 15, 2013 Rise Set
Actual Time 8:17 AM CET 4:23 PM CET
Civil Twilight 7:39 AM CET 5:02 PM CET
Nautical Twilight 6:57 AM CET 5:43 PM CET
Astronomical Twilight 6:18 AM CET 6:23 PM CET
Moon 3:23 PM CET (12/15) 6:10 AM CET (12/15)
Length of Visible Light 9h 22m
Length of Day
8h 05m
Waxing Gibbous, 97% of the Moon is Illuminated
Dec 15
Waxing Gibbous
Dec 17
Full
Dec 25
Last Quarter
Jan 1
New
Jan 8
First Quarter

Hourly Weather History & Observations

Time (CET) Temp. Windchill Dew Point Humidity Pressure Visibility Wind Dir Wind Speed Gust Speed Precip Events Conditions
12:00 AM 36 °F - 36 °F 98% 30.53 in 4 mi South 6.7 mph - -   Mist
12:20 AM 35.6 °F 31.7 °F 35.6 °F 100% 30.51 in 5.0 mi South 4.6 mph - N/A   Partly Cloudy
12:50 AM 33.8 °F 27.7 °F 33.8 °F 100% 30.51 in 3.7 mi SSW 6.9 mph - N/A   Scattered Clouds
1:00 AM 35 °F - 34 °F 92% 30.53 in 4 mi SSW 6.7 mph - -   Mist
1:20 AM 35.6 °F 28.6 °F 35.6 °F 100% 30.48 in 3.1 mi South 9.2 mph - N/A   Mostly Cloudy
1:50 AM 35.6 °F 28.0 °F 35.6 °F 100% 30.48 in 3.7 mi SSW 10.4 mph - N/A   Mostly Cloudy
2:00 AM 36 °F - 35 °F 94% 30.52 in 4 mi SSW 8.9 mph - -   Mist
2:20 AM 35.6 °F 28.6 °F 35.6 °F 100% 30.48 in 4.3 mi South 9.2 mph - N/A   Mostly Cloudy
2:50 AM 37.4 °F 30.3 °F 37.4 °F 100% 30.48 in 4.3 mi South 10.4 mph - N/A   Mostly Cloudy
3:00 AM 36 °F - 35 °F 96% 30.50 in 4 mi South 8.9 mph - -   Mist
3:20 AM 37.4 °F 32.1 °F 37.4 °F 100% 30.48 in 4.3 mi South 6.9 mph - N/A   Mostly Cloudy
3:50 AM 37.4 °F 30.8 °F 37.4 °F 100% 30.48 in 5.6 mi South 9.2 mph - N/A   Mostly Cloudy
4:20 AM 37.4 °F 31.4 °F 37.4 °F 100% 30.45 in 6.2 mi South 8.1 mph - N/A   Mostly Cloudy
4:50 AM 37.4 °F 31.4 °F 37.4 °F 100% 30.42 in 6.2 mi South 8.1 mph - N/A   Scattered Clouds
5:00 AM 36 °F - 35 °F 94% 30.46 in 6 mi South 6.7 mph - -   Mostly Cloudy
5:20 AM 37.4 °F 31.4 °F 37.4 °F 100% 30.42 in 5.6 mi SSW 8.1 mph - N/A   Mostly Cloudy
5:50 AM 35.6 °F 28.0 °F 35.6 °F 100% 30.45 in 5.0 mi SSW 10.4 mph - N/A   Scattered Clouds
6:00 AM 36 °F - 35 °F 93% 30.47 in 5 mi SSW 11.2 mph - -   Mostly Cloudy
6:20 AM 35.6 °F 29.2 °F 35.6 °F 100% 30.45 in 4.3 mi SSW 8.1 mph - N/A   Scattered Clouds
6:50 AM 35.6 °F 28.6 °F 35.6 °F 100% 30.45 in 5.0 mi SSW 9.2 mph - N/A   Scattered Clouds
7:00 AM 36 °F - 34 °F 91% 30.47 in 5 mi SSW 8.9 mph - -   Partly Cloudy
7:20 AM 35.6 °F 28.0 °F 35.6 °F 100% 30.45 in 5.0 mi SSW 10.4 mph - N/A   Mostly Cloudy
7:50 AM 35.6 °F 28.6 °F 35.6 °F 100% 30.45 in 5.0 mi SSW 9.2 mph - N/A   Mostly Cloudy
8:00 AM 36 °F - 34 °F 89% 30.48 in 5 mi SSW 8.9 mph - -   Scattered Clouds
8:20 AM 35.6 °F 29.2 °F 35.6 °F 100% 30.45 in 5.0 mi South 8.1 mph - N/A   Mostly Cloudy
8:50 AM 37.4 °F 32.8 °F 35.6 °F 93% 30.45 in 6.2 mi SSW 5.8 mph - N/A   Mostly Cloudy
9:00 AM 36 °F - 34 °F 89% 30.48 in 6 mi SSW 6.7 mph - -   Scattered Clouds
9:20 AM 37.4 °F 31.4 °F 37.4 °F 100% 30.45 in 6.2 mi SW 8.1 mph - N/A   Mostly Cloudy
9:50 AM 37.4 °F 31.4 °F 35.6 °F 93% 30.45 in 6.2 mi SW 8.1 mph - N/A   Mostly Cloudy
10:20 AM 37.4 °F 30.3 °F 35.6 °F 93% 30.48 in 6.2 mi SW 10.4 mph - N/A   Mostly Cloudy
10:50 AM 39.2 °F 33.6 °F 35.6 °F 87% 30.48 in 6.2 mi SSW 8.1 mph - N/A   Mostly Cloudy
11:00 AM 39 °F - 35 °F 80% 30.49 in 7 mi SSW 6.7 mph - -   Mostly Cloudy
11:20 AM 39.2 °F 34.2 °F 35.6 °F 87% 30.48 in 6.2 mi SSW 6.9 mph - N/A   Mostly Cloudy
11:50 AM 39.2 °F 33.0 °F 35.6 °F 87% 30.45 in 6.2 mi SW 9.2 mph - N/A   Mostly Cloudy
12:00 PM 40 °F - 35 °F 77% 30.48 in 12 mi SSW 8.9 mph - -   Mostly Cloudy
12:20 PM 41.0 °F 36.4 °F 37.4 °F 87% 30.45 in 6.2 mi SW 6.9 mph - N/A   Mostly Cloudy
12:50 PM 41.0 °F 36.4 °F 35.6 °F 81% 30.45 in 6.2 mi SSW 6.9 mph - N/A   Mostly Cloudy
1:00 PM 40 °F - 36 °F 78% 30.47 in 12 mi SSW 6.7 mph - -   Mostly Cloudy
1:20 PM 42.8 °F 38.0 °F 37.4 °F 81% 30.45 in 6.2 mi SSW 8.1 mph - N/A   Mostly Cloudy
1:50 PM 42.8 °F 38.6 °F 37.4 °F 81% 30.45 in 6.2 mi SSW 6.9 mph - N/A   Mostly Cloudy
2:00 PM 43 °F - 36 °F 69% 30.46 in 12 mi SSW 6.7 mph - -   Mostly Cloudy
2:20 PM 42.8 °F 38.0 °F 35.6 °F 76% 30.42 in 6.2 mi SSW 8.1 mph - N/A   Scattered Clouds
2:50 PM 44.6 °F 41.4 °F 35.6 °F 71% 30.42 in 6.2 mi SSW 5.8 mph - N/A   Partly Cloudy
3:00 PM 44 °F - 36 °F 65% 30.45 in 16 mi SSW 6.7 mph - -   Scattered Clouds
3:20 PM 42.8 °F 37.5 °F 35.6 °F 76% 30.42 in 6.2 mi SSW 9.2 mph - N/A   Partly Cloudy
3:50 PM 42.8 °F 37.5 °F 35.6 °F 76% 30.42 in 6.2 mi SSW 9.2 mph - N/A   Partly Cloudy
4:20 PM 42.8 °F 38.6 °F 35.6 °F 76% 30.42 in - SW 6.9 mph - N/A   Clear
4:50 PM 41.0 °F 37.1 °F 35.6 °F 81% 30.45 in - SSW 5.8 mph - N/A   Clear
5:00 PM 42 °F - 36 °F 71% 30.46 in 22 mi SSW 4.5 mph - -   Scattered Clouds
5:20 PM 41.0 °F 38.0 °F 35.6 °F 81% 30.45 in - South 4.6 mph - N/A   Clear
5:50 PM 41.0 °F - 35.6 °F 81% 30.45 in - SSW 2.3 mph - N/A   Clear
6:00 PM 40 °F - 34 °F 73% 30.47 in 22 mi SSW 2.2 mph - -   Scattered Clouds
6:20 PM 41.0 °F 38.0 °F 33.8 °F 76% 30.45 in - SW 4.6 mph - N/A   Clear
6:50 PM 39.2 °F - 33.8 °F 81% 30.45 in - SSW 1.2 mph - N/A   Clear
7:00 PM 39 °F - 33 °F 72% 30.48 in 22 mi SSW 2.2 mph - -   Scattered Clouds
7:20 PM 39.2 °F - 33.8 °F 81% 30.45 in - Variable 1.2 mph - N/A   Clear
7:50 PM 37.4 °F 34.9 °F 32.0 °F 81% 30.45 in - WSW 3.5 mph - N/A   Clear
8:00 PM 38 °F - 32 °F 73% 30.48 in 22 mi WSW 4.5 mph - -   Scattered Clouds
8:20 PM 39.2 °F 35.9 °F 33.8 °F 81% 30.45 in - SW 4.6 mph - N/A   Clear
8:50 PM 37.4 °F 34.9 °F 32.0 °F 81% 30.45 in - SW 3.5 mph - N/A   Clear
9:00 PM 37 °F - 32 °F 75% 30.48 in 19 mi SW 4.5 mph - -   Scattered Clouds
9:20 PM 33.8 °F - 30.2 °F 87% 30.45 in - Variable 1.2 mph - N/A   Clear
9:50 PM 32.0 °F - 30.2 °F 93% 30.45 in 6.2 mi Calm Calm - N/A   Partly Cloudy
10:20 PM 32.0 °F - 30.2 °F 93% 30.45 in 6.2 mi Calm Calm - N/A   Partly Cloudy
10:50 PM 30.2 °F - 28.4 °F 93% 30.45 in 6.2 mi Calm Calm - N/A   Partly Cloudy
11:00 PM 31 °F - 29 °F 87% 30.48 in 16 mi Calm Calm - -   Scattered Clouds
11:20 PM 30.2 °F - 28.4 °F 93% 30.45 in 6.2 mi Calm Calm - N/A Fog Patches of Fog
11:50 PM 30.2 °F - 30.2 °F 100% 30.45 in 6.2 mi Calm Calm - N/A   Partly Cloudy